Miles City, MT

6:35 AM MST on January 22, 2017 (GMT -0700)
Wiley

Weather History for KMLS - January, 2013

Change the Weather History Date:

Wednesday, January 16, 2013

  Actual Average Record
Temperature  
Mean Temperature 34 °F 19 °F  
Max Temperature 41 °F 30 °F 56 °F (1961)
Min Temperature 27 °F 9 °F -27 °F (1937)
Degree Days  
Heating Degree Days 31 46  
Month to date heating degree days 714 737  
Since 1 July heating degree days 3624 3921  
Cooling Degree Days 0 0  
Month to date cooling degree days 0 0  
Year to date cooling degree days 0 0  
Moisture  
Dew Point 26 °F    
Average Humidity 69    
Maximum Humidity 78    
Minimum Humidity 59    
Precipitation  
Precipitation 0.00 in 0.01 in 0.25 in (1990)
Month to date precipitation 0.06 0.19  
Year to date precipitation 0.06 0.19  
Sea Level Pressure  
Sea Level Pressure 30.13 in    
Wind  
Wind Speed 14 mph (West)    
Max Wind Speed 28 mph    
Max Gust Speed 35 mph    
Visibility 10 miles    
Events      
T = Trace of Precipitation, MM = Missing Value Source: NWS Daily Summary

Daily Weather History Graph

Daily Weather History Graph

Search for Another Location

Airport or City:

Trip Planner

Search our weather history database for the weather conditions in past years. The results will help you decide how hot, cold, wet, or windy it might be!

Date:

Astronomy

Jan. 16, 2013 Rise Set
Actual Time 7:42 AM MST 4:45 PM MST
Civil Twilight 7:08 AM MST 5:18 PM MST
Nautical Twilight 6:31 AM MST 5:56 PM MST
Astronomical Twilight 5:55 AM MST 6:32 PM MST
Moon 9:57 AM MST (1/16) 11:04 PM MST (1/16)
Length of Visible Light 10h 10m
Length of Day
9h 03m
Waxing Crescent, 29% of the Moon is Illuminated
Jan 16
Waxing Crescent
Jan 18
First Quarter
Jan 26
Full
Feb 3
Last Quarter
Feb 10
New

Hourly Weather History & Observations

Time (MST) Temp. Windchill Dew Point Humidity Pressure Visibility Wind Dir Wind Speed Gust Speed Precip Events Conditions
12:53 AM 37.0 °F 25.6 °F 26.1 °F 65% 29.97 in 10.0 mi West 24.2 mph - N/A   Overcast
1:53 AM 36.0 °F 24.4 °F 25.0 °F 64% 29.98 in 10.0 mi West 23.0 mph 28.8 mph N/A   Mostly Cloudy
2:53 AM 36.0 °F 24.7 °F 24.1 °F 62% 29.99 in 10.0 mi West 21.9 mph 27.6 mph N/A   Scattered Clouds
3:53 AM 36.0 °F 23.9 °F 24.1 °F 62% 29.97 in 10.0 mi West 25.3 mph 32.2 mph N/A   Partly Cloudy
4:53 AM 37.0 °F 25.6 °F 24.1 °F 59% 29.98 in 10.0 mi West 24.2 mph 31.1 mph N/A   Overcast
5:53 AM 37.0 °F 26.4 °F 24.1 °F 59% 29.99 in 10.0 mi West 20.7 mph 29.9 mph N/A   Overcast
6:53 AM 36.0 °F 24.4 °F 24.1 °F 62% 30.01 in 10.0 mi West 23.0 mph - N/A   Clear
7:53 AM 37.0 °F 27.7 °F 24.1 °F 59% 30.04 in 10.0 mi West 16.1 mph 27.6 mph N/A   Mostly Cloudy
8:53 AM 37.9 °F 28.5 °F 25.0 °F 60% 30.09 in 10.0 mi West 17.3 mph - N/A   Partly Cloudy
9:53 AM 37.9 °F 32.1 °F 25.0 °F 60% 30.12 in 10.0 mi NW 8.1 mph - N/A   Mostly Cloudy
10:53 AM 37.9 °F 30.9 °F 26.1 °F 62% 30.13 in 10.0 mi West 10.4 mph - N/A   Scattered Clouds
11:53 AM 39.0 °F 31.0 °F 27.0 °F 62% 30.14 in 10.0 mi West 13.8 mph - N/A   Mostly Cloudy
1:53 PM 39.0 °F 32.3 °F 28.9 °F 67% 30.14 in 10.0 mi WNW 10.4 mph - N/A   Overcast
2:53 PM 39.9 °F 33.9 °F 30.0 °F 68% 30.16 in 10.0 mi WNW 9.2 mph - N/A   Scattered Clouds
4:53 PM 37.0 °F 34.5 °F 28.9 °F 73% 30.21 in 10.0 mi West 3.5 mph - N/A   Overcast
5:53 PM 36.0 °F 30.3 °F 28.9 °F 76% 30.22 in 10.0 mi West 6.9 mph - N/A   Mostly Cloudy
6:53 PM 35.1 °F 26.9 °F 28.0 °F 76% 30.24 in 10.0 mi West 11.5 mph - N/A   Clear
7:53 PM 34.0 °F 31.0 °F 27.0 °F 75% 30.26 in 10.0 mi Variable 3.5 mph - N/A   Mostly Cloudy
8:53 PM 33.1 °F 26.9 °F 26.1 °F 75% 30.29 in 10.0 mi WNW 6.9 mph - N/A   Mostly Cloudy
9:53 PM 28.9 °F 19.8 °F 23.0 °F 78% 30.30 in 10.0 mi West 10.4 mph - N/A   Clear
10:53 PM 28.9 °F 21.1 °F 23.0 °F 78% 30.31 in 10.0 mi West 8.1 mph - N/A   Mostly Cloudy
11:53 PM 28.0 °F 20.0 °F 23.0 °F 81% 30.32 in 10.0 mi West 8.1 mph - N/A   Overcast